Year,Month,Day,Hour,Minute,Value (Times are PST for temperature in C)
2013,10,24,00,00,7.80
2013,10,24,00,01,7.80
2013,10,24,00,02,7.90
2013,10,24,00,03,7.90
2013,10,24,00,04,8.00
2013,10,24,00,05,8.00
2013,10,24,00,06,7.90
2013,10,24,00,07,7.90
2013,10,24,00,08,7.90
2013,10,24,00,09,7.80
2013,10,24,00,10,7.80
2013,10,24,00,11,7.80
2013,10,24,00,12,7.80
2013,10,24,00,13,7.70
2013,10,24,00,14,7.70
2013,10,24,00,15,7.70
2013,10,24,00,16,7.70
2013,10,24,00,17,7.60
2013,10,24,00,18,7.60
2013,10,24,00,19,7.60
2013,10,24,00,20,7.60
2013,10,24,00,21,7.60
2013,10,24,00,22,7.60
2013,10,24,00,23,7.60
2013,10,24,00,24,7.60
2013,10,24,00,25,7.60
2013,10,24,00,26,7.50
2013,10,24,00,27,7.50
2013,10,24,00,28,7.50
2013,10,24,00,29,7.50
2013,10,24,00,30,7.50
2013,10,24,00,31,7.50
2013,10,24,00,32,7.40
2013,10,24,00,33,7.40
2013,10,24,00,34,7.40
2013,10,24,00,35,7.40
2013,10,24,00,36,7.40
2013,10,24,00,37,7.40
2013,10,24,00,38,7.30
2013,10,24,00,39,7.30
2013,10,24,00,40,7.30
2013,10,24,00,41,7.30
2013,10,24,00,42,7.30
2013,10,24,00,43,7.30
2013,10,24,00,44,7.30
2013,10,24,00,45,7.30
2013,10,24,00,46,7.30
2013,10,24,00,47,7.30
2013,10,24,00,48,7.30
2013,10,24,00,49,7.30
2013,10,24,00,50,7.30
2013,10,24,00,51,7.30
2013,10,24,00,52,7.30
2013,10,24,00,53,7.30
2013,10,24,00,54,7.30
2013,10,24,00,55,7.30
2013,10,24,00,56,7.30
2013,10,24,00,57,7.30
2013,10,24,00,58,7.30
2013,10,24,00,59,7.30
2013,10,24,01,00,7.30
2013,10,24,01,01,7.30
2013,10,24,01,02,7.20
2013,10,24,01,03,7.20
2013,10,24,01,04,7.20
2013,10,24,01,05,7.10
2013,10,24,01,06,7.10
2013,10,24,01,07,7.10
2013,10,24,01,08,7.10
2013,10,24,01,09,7.20
2013,10,24,01,10,7.20
2013,10,24,01,11,7.20
2013,10,24,01,12,7.20
2013,10,24,01,13,7.20
2013,10,24,01,14,7.20
2013,10,24,01,15,7.20
2013,10,24,01,16,7.20
2013,10,24,01,17,7.20
2013,10,24,01,18,7.20
2013,10,24,01,19,7.30
2013,10,24,01,20,7.30
2013,10,24,01,21,7.30
2013,10,24,01,22,7.30
2013,10,24,01,23,7.30
2013,10,24,01,24,7.30
2013,10,24,01,25,7.30
2013,10,24,01,26,7.30
2013,10,24,01,27,7.30
2013,10,24,01,28,7.40
2013,10,24,01,29,7.40
2013,10,24,01,30,7.40
2013,10,24,01,31,7.40
2013,10,24,01,32,7.40
2013,10,24,01,33,7.40
2013,10,24,01,34,7.40
2013,10,24,01,35,7.40
2013,10,24,01,36,7.40
2013,10,24,01,37,7.40
2013,10,24,01,38,7.40
2013,10,24,01,39,7.40
2013,10,24,01,40,7.40
2013,10,24,01,41,7.40
2013,10,24,01,42,7.40
2013,10,24,01,43,7.40
2013,10,24,01,44,7.50
2013,10,24,01,45,7.40
2013,10,24,01,46,7.50
2013,10,24,01,47,7.50
2013,10,24,01,48,7.50
2013,10,24,01,49,7.50
2013,10,24,01,50,7.50
2013,10,24,01,51,7.50
2013,10,24,01,52,7.50
2013,10,24,01,53,7.50
2013,10,24,01,54,7.50
2013,10,24,01,55,7.50
2013,10,24,01,56,7.40
2013,10,24,01,57,7.40
2013,10,24,01,58,7.40
2013,10,24,01,59,7.40
2013,10,24,02,00,7.40
2013,10,24,02,01,7.40
2013,10,24,02,02,7.30
2013,10,24,02,03,7.30
2013,10,24,02,04,7.30
2013,10,24,02,05,7.30
2013,10,24,02,06,7.30
2013,10,24,02,07,7.20
2013,10,24,02,08,7.20
2013,10,24,02,09,7.10
2013,10,24,02,10,7.10
2013,10,24,02,11,7.00
2013,10,24,02,12,7.00
2013,10,24,02,13,7.00
2013,10,24,02,14,7.00
2013,10,24,02,15,7.00
2013,10,24,02,16,7.00
2013,10,24,02,17,7.00
2013,10,24,02,18,6.90
2013,10,24,02,19,6.90
2013,10,24,02,20,6.90
2013,10,24,02,21,6.90
2013,10,24,02,22,6.90
2013,10,24,02,23,6.80
2013,10,24,02,24,6.80
2013,10,24,02,25,6.90
2013,10,24,02,26,6.90
2013,10,24,02,27,6.90
2013,10,24,02,28,6.90
2013,10,24,02,29,7.00
2013,10,24,02,30,7.00
2013,10,24,02,31,6.90
2013,10,24,02,32,6.90
2013,10,24,02,33,6.90
2013,10,24,02,34,6.90
2013,10,24,02,35,6.80
2013,10,24,02,36,6.80
2013,10,24,02,37,6.80
2013,10,24,02,38,6.80
2013,10,24,02,39,6.80
2013,10,24,02,40,6.80
2013,10,24,02,41,6.80
2013,10,24,02,42,6.80
2013,10,24,02,43,6.70
2013,10,24,02,44,6.70
2013,10,24,02,45,6.70
2013,10,24,02,46,6.60
2013,10,24,02,47,6.60
2013,10,24,02,48,6.60
2013,10,24,02,49,6.60
2013,10,24,02,50,6.60
2013,10,24,02,51,6.60
2013,10,24,02,52,6.50
2013,10,24,02,53,6.40
2013,10,24,02,54,6.40
2013,10,24,02,55,6.40
2013,10,24,02,56,6.40
2013,10,24,02,57,6.40
2013,10,24,02,58,6.40
2013,10,24,02,59,6.40
2013,10,24,03,00,6.40
2013,10,24,03,01,6.40
2013,10,24,03,02,6.40
2013,10,24,03,03,6.40
2013,10,24,03,04,6.40
2013,10,24,03,05,6.40
2013,10,24,03,06,6.40
2013,10,24,03,07,6.60
2013,10,24,03,08,6.60
2013,10,24,03,09,6.70
2013,10,24,03,10,6.70
2013,10,24,03,11,6.80
2013,10,24,03,12,6.80
2013,10,24,03,13,6.80
2013,10,24,03,14,6.80
2013,10,24,03,15,6.90
2013,10,24,03,16,6.90
2013,10,24,03,17,6.90
2013,10,24,03,18,7.00
2013,10,24,03,19,7.00
2013,10,24,03,20,7.10
2013,10,24,03,21,7.10
2013,10,24,03,22,7.10
2013,10,24,03,23,7.20
2013,10,24,03,24,7.20
2013,10,24,03,25,7.20
2013,10,24,03,26,7.30
2013,10,24,03,27,7.30
2013,10,24,03,28,7.30
2013,10,24,03,29,7.30
2013,10,24,03,30,7.30
2013,10,24,03,31,7.30
2013,10,24,03,32,7.30
2013,10,24,03,33,7.30
2013,10,24,03,34,7.30
2013,10,24,03,35,7.30
2013,10,24,03,36,7.30
2013,10,24,03,37,7.20
2013,10,24,03,38,7.20
2013,10,24,03,39,7.20
2013,10,24,03,40,7.20
2013,10,24,03,41,7.20
2013,10,24,03,42,7.20
2013,10,24,03,43,7.20
2013,10,24,03,44,7.20
2013,10,24,03,45,7.20
2013,10,24,03,46,7.20
2013,10,24,03,47,7.20
2013,10,24,03,48,7.20
2013,10,24,03,49,7.20
2013,10,24,03,50,7.20
2013,10,24,03,51,7.30
2013,10,24,03,52,7.30
2013,10,24,03,53,7.30
2013,10,24,03,54,7.30
2013,10,24,03,55,7.30
2013,10,24,03,56,7.20
2013,10,24,03,57,7.20
2013,10,24,03,58,7.20
2013,10,24,03,59,7.20
2013,10,24,04,00,7.10
2013,10,24,04,01,7.10
2013,10,24,04,02,7.00
2013,10,24,04,03,7.00
2013,10,24,04,04,7.00
2013,10,24,04,05,6.90
2013,10,24,04,06,6.90
2013,10,24,04,07,6.80
2013,10,24,04,08,6.80
2013,10,24,04,09,6.80
2013,10,24,04,10,6.70
2013,10,24,04,11,6.60
2013,10,24,04,12,6.50
2013,10,24,04,13,6.40
2013,10,24,04,14,6.30
2013,10,24,04,15,6.20
2013,10,24,04,16,6.20
2013,10,24,04,17,6.20
2013,10,24,04,18,6.20
2013,10,24,04,19,6.10
2013,10,24,04,20,6.10
2013,10,24,04,21,6.10
2013,10,24,04,22,6.10
2013,10,24,04,23,6.20
2013,10,24,04,24,6.20
2013,10,24,04,25,6.20
2013,10,24,04,26,6.30
2013,10,24,04,27,6.30
2013,10,24,04,28,6.40
2013,10,24,04,29,6.40
2013,10,24,04,30,6.40
2013,10,24,04,31,6.50
2013,10,24,04,32,6.60
2013,10,24,04,33,6.60
2013,10,24,04,34,6.60
2013,10,24,04,35,6.60
2013,10,24,04,36,6.60
2013,10,24,04,37,6.60
2013,10,24,04,38,6.60
2013,10,24,04,39,6.60
2013,10,24,04,40,6.70
2013,10,24,04,41,6.70
2013,10,24,04,42,6.70
2013,10,24,04,43,6.70
2013,10,24,04,44,6.70
2013,10,24,04,45,6.70
2013,10,24,04,46,6.70
2013,10,24,04,47,6.70
2013,10,24,04,48,6.70
2013,10,24,04,49,6.70
2013,10,24,04,50,6.70
2013,10,24,04,51,6.70
2013,10,24,04,52,6.70
2013,10,24,04,53,6.70
2013,10,24,04,54,6.70
2013,10,24,04,55,6.70
2013,10,24,04,56,6.70
2013,10,24,04,57,6.70
2013,10,24,04,58,6.70
2013,10,24,04,59,6.60
2013,10,24,05,00,6.70
2013,10,24,05,01,6.70
2013,10,24,05,02,6.70
2013,10,24,05,03,6.70
2013,10,24,05,04,6.60
2013,10,24,05,05,6.60
2013,10,24,05,06,6.60
2013,10,24,05,07,6.60
2013,10,24,05,08,6.60
2013,10,24,05,09,6.60
2013,10,24,05,10,6.60
2013,10,24,05,11,6.60
2013,10,24,05,12,6.60
2013,10,24,05,13,6.60
2013,10,24,05,14,6.50
2013,10,24,05,15,6.40
2013,10,24,05,16,6.40
2013,10,24,05,17,6.40
2013,10,24,05,18,6.40
2013,10,24,05,19,6.30
2013,10,24,05,20,6.30
2013,10,24,05,21,6.30
2013,10,24,05,22,6.30
2013,10,24,05,23,6.20
2013,10,24,05,24,6.20
2013,10,24,05,25,6.20
2013,10,24,05,26,6.20
2013,10,24,05,27,6.20
2013,10,24,05,28,6.10
2013,10,24,05,29,6.10
2013,10,24,05,30,6.00
2013,10,24,05,31,6.00
2013,10,24,05,32,6.00
2013,10,24,05,33,5.90
2013,10,24,05,34,5.90
2013,10,24,05,35,5.90
2013,10,24,05,36,5.90
2013,10,24,05,37,5.90
2013,10,24,05,38,5.80
2013,10,24,05,39,5.80
2013,10,24,05,40,5.80
2013,10,24,05,41,5.80
2013,10,24,05,42,5.70
2013,10,24,05,43,5.70
2013,10,24,05,44,5.70
2013,10,24,05,45,5.70
2013,10,24,05,46,5.60
2013,10,24,05,47,5.60
2013,10,24,05,48,5.60
2013,10,24,05,49,5.50
2013,10,24,05,50,5.60
2013,10,24,05,51,5.50
2013,10,24,05,52,5.50
2013,10,24,05,53,5.50
2013,10,24,05,54,5.50
2013,10,24,05,55,5.50
2013,10,24,05,56,5.50
2013,10,24,05,57,5.50
2013,10,24,05,58,5.50
2013,10,24,05,59,5.50
2013,10,24,06,00,5.50
2013,10,24,06,01,5.50
2013,10,24,06,02,5.40
2013,10,24,06,03,5.40
2013,10,24,06,04,5.30
2013,10,24,06,05,5.30
2013,10,24,06,06,5.30
2013,10,24,06,07,5.30
2013,10,24,06,08,5.20
2013,10,24,06,09,5.20
2013,10,24,06,10,5.20
2013,10,24,06,11,5.20
2013,10,24,06,12,5.10
2013,10,24,06,13,5.10
2013,10,24,06,14,5.10
2013,10,24,06,15,5.10
2013,10,24,06,16,5.00
2013,10,24,06,17,4.90
2013,10,24,06,18,4.90
2013,10,24,06,19,4.90
2013,10,24,06,20,4.90
2013,10,24,06,21,4.90
2013,10,24,06,22,4.90
2013,10,24,06,23,4.90
2013,10,24,06,24,4.90
2013,10,24,06,25,4.90
2013,10,24,06,26,4.90
2013,10,24,06,27,4.90
2013,10,24,06,28,4.90
2013,10,24,06,29,4.90
2013,10,24,06,30,4.90
2013,10,24,06,31,4.90
2013,10,24,06,32,4.90
2013,10,24,06,33,4.90
2013,10,24,06,34,4.90
2013,10,24,06,35,4.90
2013,10,24,06,36,4.90
2013,10,24,06,37,4.90
2013,10,24,06,38,4.80
2013,10,24,06,39,4.80
2013,10,24,06,40,4.80
2013,10,24,06,41,4.80
2013,10,24,06,42,4.80
2013,10,24,06,43,4.80
2013,10,24,06,44,4.80
2013,10,24,06,45,4.80
2013,10,24,06,46,4.70
2013,10,24,06,47,4.70
2013,10,24,06,48,4.70
2013,10,24,06,49,4.70
2013,10,24,06,50,4.70
2013,10,24,06,51,4.70
2013,10,24,06,52,4.60
2013,10,24,06,53,4.60
2013,10,24,06,54,4.60
2013,10,24,06,55,4.60
2013,10,24,06,56,4.60
2013,10,24,06,57,4.60
2013,10,24,06,58,4.60
2013,10,24,06,59,4.60
2013,10,24,07,00,4.60
2013,10,24,07,01,4.60
2013,10,24,07,02,4.70
2013,10,24,07,03,4.70
2013,10,24,07,04,4.60
2013,10,24,07,05,4.60
2013,10,24,07,06,4.60
2013,10,24,07,07,4.60
2013,10,24,07,08,4.60
2013,10,24,07,09,4.60
2013,10,24,07,10,4.60
2013,10,24,07,11,4.60
2013,10,24,07,12,4.60
2013,10,24,07,13,4.60
2013,10,24,07,14,4.50
2013,10,24,07,15,4.50
2013,10,24,07,16,4.50
2013,10,24,07,17,4.50
2013,10,24,07,18,4.50
2013,10,24,07,19,4.50
2013,10,24,07,20,4.50
2013,10,24,07,21,4.50
2013,10,24,07,22,4.50
2013,10,24,07,23,4.50
2013,10,24,07,24,4.50
2013,10,24,07,25,4.50
2013,10,24,07,26,4.50
2013,10,24,07,27,4.40
2013,10,24,07,28,4.40
2013,10,24,07,29,4.40
2013,10,24,07,30,4.40
2013,10,24,07,31,4.30
2013,10,24,07,32,4.30
2013,10,24,07,33,4.30
2013,10,24,07,34,4.30
2013,10,24,07,35,4.30
2013,10,24,07,36,4.30
2013,10,24,07,37,4.30
2013,10,24,07,38,4.30
2013,10,24,07,39,4.40
2013,10,24,07,40,4.40
2013,10,24,07,41,4.40
2013,10,24,07,42,4.50
2013,10,24,07,43,4.50
2013,10,24,07,44,4.50
2013,10,24,07,45,4.50
2013,10,24,07,46,4.60
2013,10,24,07,47,4.60
2013,10,24,07,48,4.60
2013,10,24,07,49,4.60
2013,10,24,07,50,4.60
2013,10,24,07,51,4.60
2013,10,24,07,52,4.70
2013,10,24,07,53,4.70
2013,10,24,07,54,4.70
2013,10,24,07,55,4.70
2013,10,24,07,56,4.70
2013,10,24,07,57,4.70
2013,10,24,07,58,4.70
2013,10,24,07,59,4.70
2013,10,24,08,00,4.80
2013,10,24,08,01,4.80
2013,10,24,08,02,4.80
2013,10,24,08,03,4.80
2013,10,24,08,04,4.80
2013,10,24,08,05,4.80
2013,10,24,08,06,4.80
2013,10,24,08,07,4.80
2013,10,24,08,08,4.80
2013,10,24,08,09,4.80
2013,10,24,08,10,4.80
2013,10,24,08,11,4.80
2013,10,24,08,12,4.80
2013,10,24,08,13,4.80
2013,10,24,08,14,4.80
2013,10,24,08,15,4.90
2013,10,24,08,16,4.90
2013,10,24,08,17,4.90
2013,10,24,08,18,4.90
2013,10,24,08,19,5.00
2013,10,24,08,20,5.10
2013,10,24,08,21,5.10
2013,10,24,08,22,5.10
2013,10,24,08,23,5.10
2013,10,24,08,24,5.10
2013,10,24,08,25,5.10
2013,10,24,08,26,5.10
2013,10,24,08,27,5.10
2013,10,24,08,28,5.10
2013,10,24,08,29,5.10
2013,10,24,08,30,5.10
2013,10,24,08,31,5.10
2013,10,24,08,32,5.10
2013,10,24,08,33,5.10
2013,10,24,08,34,5.10
2013,10,24,08,35,5.10
2013,10,24,08,36,5.10
2013,10,24,08,37,5.10
2013,10,24,08,38,5.10
2013,10,24,08,39,5.10
2013,10,24,08,40,5.10
2013,10,24,08,41,5.20
2013,10,24,08,42,5.20
2013,10,24,08,43,5.30
2013,10,24,08,44,5.30
2013,10,24,08,45,5.30
2013,10,24,08,46,5.30
2013,10,24,08,47,5.40
2013,10,24,08,48,5.50
2013,10,24,08,49,5.50
2013,10,24,08,50,5.60
2013,10,24,08,51,5.60
2013,10,24,08,52,5.70
2013,10,24,08,53,5.70
2013,10,24,08,54,5.80
2013,10,24,08,55,5.90
2013,10,24,08,56,6.10
2013,10,24,08,57,6.20
2013,10,24,08,58,6.30
2013,10,24,08,59,6.40
2013,10,24,09,00,6.40
2013,10,24,09,01,6.60
2013,10,24,09,02,6.60
2013,10,24,09,03,6.70
2013,10,24,09,04,6.70
2013,10,24,09,05,6.70
2013,10,24,09,06,6.70
2013,10,24,09,07,6.70
2013,10,24,09,08,6.70
2013,10,24,09,09,6.80
2013,10,24,09,10,6.80
2013,10,24,09,11,6.80
2013,10,24,09,12,6.80
2013,10,24,09,13,6.90
2013,10,24,09,14,7.00
2013,10,24,09,15,7.00
2013,10,24,09,16,7.00
2013,10,24,09,17,7.10
2013,10,24,09,18,7.10
2013,10,24,09,19,7.20
2013,10,24,09,20,7.20
2013,10,24,09,21,7.20
2013,10,24,09,22,7.20
2013,10,24,09,23,7.20
2013,10,24,09,24,7.30
2013,10,24,09,25,7.30
2013,10,24,09,26,7.30
2013,10,24,09,27,7.40
2013,10,24,09,28,7.40
2013,10,24,09,29,7.40
2013,10,24,09,30,7.40
2013,10,24,09,31,7.40
2013,10,24,09,32,7.50
2013,10,24,09,33,7.50
2013,10,24,09,34,7.60
2013,10,24,09,35,7.60
2013,10,24,09,36,7.60
2013,10,24,09,37,7.70
2013,10,24,09,38,7.70
2013,10,24,09,39,7.70
2013,10,24,09,40,7.80
2013,10,24,09,41,7.80
2013,10,24,09,42,7.80
2013,10,24,09,43,7.80
2013,10,24,09,44,7.90
2013,10,24,09,45,8.00
2013,10,24,09,46,8.00
2013,10,24,09,47,8.10
2013,10,24,09,48,8.10
2013,10,24,09,49,8.10
2013,10,24,09,50,8.10
2013,10,24,09,51,8.00
2013,10,24,09,52,8.00
2013,10,24,09,53,8.00
2013,10,24,09,54,8.00
2013,10,24,09,55,8.00
2013,10,24,09,56,8.00
2013,10,24,09,57,8.00
2013,10,24,09,58,8.00
2013,10,24,09,59,7.90
2013,10,24,10,00,8.00
2013,10,24,10,01,8.00
2013,10,24,10,02,8.10
2013,10,24,10,03,8.10
2013,10,24,10,04,8.00
2013,10,24,10,05,8.00
2013,10,24,10,06,8.00
2013,10,24,10,07,8.00
2013,10,24,10,08,8.00
2013,10,24,10,09,8.00
2013,10,24,10,10,8.00
2013,10,24,10,11,8.00
2013,10,24,10,12,8.00
2013,10,24,10,13,8.10
2013,10,24,10,14,8.10
2013,10,24,10,15,8.20
2013,10,24,10,16,8.20
2013,10,24,10,17,8.30
2013,10,24,10,18,8.40
2013,10,24,10,19,8.40
2013,10,24,10,20,8.50
2013,10,24,10,21,8.50
2013,10,24,10,22,8.60
2013,10,24,10,23,8.70
2013,10,24,10,24,8.70
2013,10,24,10,25,8.80
2013,10,24,10,26,8.90
2013,10,24,10,27,8.90
2013,10,24,10,28,8.80
2013,10,24,10,29,8.80
2013,10,24,10,30,8.80
2013,10,24,10,31,8.80
2013,10,24,10,32,8.80
2013,10,24,10,33,8.80
2013,10,24,10,34,8.80
2013,10,24,10,35,8.80
2013,10,24,10,36,8.90
2013,10,24,10,37,9.00
2013,10,24,10,38,9.00
2013,10,24,10,39,9.00
2013,10,24,10,40,9.00
2013,10,24,10,41,9.10
2013,10,24,10,42,9.10
2013,10,24,10,43,9.00
2013,10,24,10,44,9.00
2013,10,24,10,45,9.00
2013,10,24,10,46,8.90
2013,10,24,10,47,8.90
2013,10,24,10,48,8.90
2013,10,24,10,49,8.90
2013,10,24,10,50,9.00
2013,10,24,10,51,9.00
2013,10,24,10,52,8.90
2013,10,24,10,53,8.90
2013,10,24,10,54,8.80
2013,10,24,10,55,8.80
2013,10,24,10,56,8.80
2013,10,24,10,57,8.80
2013,10,24,10,58,8.80
2013,10,24,10,59,8.80
2013,10,24,11,00,8.80
2013,10,24,11,01,8.80
2013,10,24,11,02,8.80
2013,10,24,11,03,8.90
2013,10,24,11,04,8.90
2013,10,24,11,05,8.90
2013,10,24,11,06,8.90
2013,10,24,11,07,8.90
2013,10,24,11,08,8.90
2013,10,24,11,09,8.80
2013,10,24,11,10,8.90
2013,10,24,11,11,8.90
2013,10,24,11,12,9.00
2013,10,24,11,13,9.00
2013,10,24,11,14,9.00
2013,10,24,11,15,9.00
2013,10,24,11,16,9.00
2013,10,24,11,17,9.10
2013,10,24,11,18,9.10
2013,10,24,11,19,9.20
2013,10,24,11,20,9.20
2013,10,24,11,21,9.20
2013,10,24,11,22,9.20
2013,10,24,11,23,9.30
2013,10,24,11,24,9.30
2013,10,24,11,25,9.30
2013,10,24,11,26,9.30
2013,10,24,11,27,9.30
2013,10,24,11,28,9.30
2013,10,24,11,29,9.40
2013,10,24,11,30,9.50
2013,10,24,11,31,9.50
2013,10,24,11,32,9.60
2013,10,24,11,33,9.60
2013,10,24,11,34,9.60
2013,10,24,11,35,9.60
2013,10,24,11,36,9.70
2013,10,24,11,37,9.80
2013,10,24,11,38,9.80
2013,10,24,11,39,9.80
2013,10,24,11,40,9.80
2013,10,24,11,41,9.80
2013,10,24,11,42,9.80
2013,10,24,11,43,9.90
2013,10,24,11,44,9.90
2013,10,24,11,45,9.90
2013,10,24,11,46,9.90
2013,10,24,11,47,9.90
2013,10,24,11,48,9.80
2013,10,24,11,49,9.80
2013,10,24,11,50,9.80
2013,10,24,11,51,9.80
2013,10,24,11,52,9.90
2013,10,24,11,53,9.90
2013,10,24,11,54,10.00
2013,10,24,11,55,10.10
2013,10,24,11,56,10.10
2013,10,24,11,57,10.00
2013,10,24,11,58,9.90
2013,10,24,11,59,9.80
2013,10,24,12,00,9.70
2013,10,24,12,01,9.70
2013,10,24,12,02,9.70
2013,10,24,12,03,9.70
2013,10,24,12,04,9.50
2013,10,24,12,05,9.50
2013,10,24,12,06,9.50
2013,10,24,12,07,9.50
2013,10,24,12,08,9.40
2013,10,24,12,09,9.40
2013,10,24,12,10,9.30
2013,10,24,12,11,9.30
2013,10,24,12,12,9.20
2013,10,24,12,13,9.20
2013,10,24,12,14,9.20
2013,10,24,12,15,9.20
2013,10,24,12,16,9.20
2013,10,24,12,17,9.20
2013,10,24,12,18,9.20
2013,10,24,12,19,9.20
2013,10,24,12,20,9.20
2013,10,24,12,21,9.20
2013,10,24,12,22,9.20
2013,10,24,12,23,9.20
2013,10,24,12,24,9.20
2013,10,24,12,25,9.20
2013,10,24,12,26,9.20
2013,10,24,12,27,9.20
2013,10,24,12,28,9.10
2013,10,24,12,29,9.10
2013,10,24,12,30,9.10
2013,10,24,12,31,9.00
2013,10,24,12,32,9.00
2013,10,24,12,33,9.00
2013,10,24,12,34,8.90
2013,10,24,12,35,8.90
2013,10,24,12,36,8.90
2013,10,24,12,37,8.90
2013,10,24,12,38,9.00
2013,10,24,12,39,9.00
2013,10,24,12,40,9.00
2013,10,24,12,41,9.10
2013,10,24,12,42,9.10
2013,10,24,12,43,9.00
2013,10,24,12,44,9.00
2013,10,24,12,45,8.90
2013,10,24,12,46,8.90
2013,10,24,12,47,8.80
2013,10,24,12,48,8.80
2013,10,24,12,49,8.80
2013,10,24,12,50,8.70
2013,10,24,12,51,8.70
2013,10,24,12,52,8.70
2013,10,24,12,53,8.70
2013,10,24,12,54,8.70
2013,10,24,12,55,8.60
2013,10,24,12,56,8.60
2013,10,24,12,57,8.50
2013,10,24,12,58,8.50
2013,10,24,12,59,8.50
2013,10,24,13,00,8.50
2013,10,24,13,01,8.60
2013,10,24,13,02,8.60
2013,10,24,13,03,8.60
2013,10,24,13,04,8.60
2013,10,24,13,05,8.60
2013,10,24,13,06,8.50
2013,10,24,13,07,8.30
2013,10,24,13,08,8.20
2013,10,24,13,09,8.10
2013,10,24,13,10,8.00
2013,10,24,13,11,8.00
2013,10,24,13,12,8.00
2013,10,24,13,13,8.00
2013,10,24,13,14,8.00
2013,10,24,13,15,7.90
2013,10,24,13,16,8.00
2013,10,24,13,17,8.00
2013,10,24,13,18,8.10
2013,10,24,13,19,8.20
2013,10,24,13,20,8.10
2013,10,24,13,21,8.10
2013,10,24,13,22,8.10
2013,10,24,13,23,8.10
2013,10,24,13,24,8.20
2013,10,24,13,25,8.20
2013,10,24,13,26,8.20
2013,10,24,13,27,8.20
2013,10,24,13,28,8.20
2013,10,24,13,29,8.20
2013,10,24,13,30,8.20
2013,10,24,13,31,8.20
2013,10,24,13,32,8.20
2013,10,24,13,33,8.20
2013,10,24,13,34,8.20
2013,10,24,13,35,8.30
2013,10,24,13,36,8.30
2013,10,24,13,37,8.40
2013,10,24,13,38,8.40
2013,10,24,13,39,8.40
2013,10,24,13,40,8.40
2013,10,24,13,41,8.40
2013,10,24,13,42,8.40
2013,10,24,13,43,8.30
2013,10,24,13,44,8.30
2013,10,24,13,45,8.20
2013,10,24,13,46,8.20
2013,10,24,13,47,8.20
2013,10,24,13,48,8.20
2013,10,24,13,49,8.20
2013,10,24,13,50,8.20
2013,10,24,13,51,8.20
2013,10,24,13,52,8.10
2013,10,24,13,53,8.10
2013,10,24,13,54,8.10
2013,10,24,13,55,8.10
2013,10,24,13,56,8.10
2013,10,24,13,57,8.10
2013,10,24,13,58,8.10
2013,10,24,13,59,8.10
2013,10,24,14,00,8.10
2013,10,24,14,01,8.20
2013,10,24,14,02,8.20
2013,10,24,14,03,8.20
2013,10,24,14,04,8.20
2013,10,24,14,05,8.20
2013,10,24,14,06,8.20
2013,10,24,14,07,8.20
2013,10,24,14,08,8.30
2013,10,24,14,09,8.30
2013,10,24,14,10,8.30
2013,10,24,14,11,8.30
2013,10,24,14,12,8.30
2013,10,24,14,13,8.20
2013,10,24,14,14,8.20
2013,10,24,14,15,8.20
2013,10,24,14,16,8.00
2013,10,24,14,17,8.00
2013,10,24,14,18,7.90
2013,10,24,14,19,7.90
2013,10,24,14,20,7.90
2013,10,24,14,21,7.90
2013,10,24,14,22,7.90
2013,10,24,14,23,7.90
2013,10,24,14,24,7.90
2013,10,24,14,25,7.80
2013,10,24,14,26,7.90
2013,10,24,14,27,8.00
2013,10,24,14,28,8.10
2013,10,24,14,29,8.20
2013,10,24,14,30,8.30
2013,10,24,14,31,8.40
2013,10,24,14,32,8.40
2013,10,24,14,33,8.50
2013,10,24,14,34,8.60
2013,10,24,14,35,8.70
2013,10,24,14,36,8.70
2013,10,24,14,37,8.80
2013,10,24,14,38,8.80
2013,10,24,14,39,8.90
2013,10,24,14,40,8.90
2013,10,24,14,41,8.90
2013,10,24,14,42,9.00
2013,10,24,14,43,9.00
2013,10,24,14,44,9.20
2013,10,24,14,45,9.20
2013,10,24,14,46,9.20
2013,10,24,14,47,9.20
2013,10,24,14,48,9.20
2013,10,24,14,49,9.20
2013,10,24,14,50,9.30
2013,10,24,14,51,9.30
2013,10,24,14,52,9.30
2013,10,24,14,53,9.30
2013,10,24,14,54,9.30
2013,10,24,14,55,9.30
2013,10,24,14,56,9.30
2013,10,24,14,57,9.20
2013,10,24,14,58,9.20
2013,10,24,14,59,9.20
2013,10,24,15,00,9.30
2013,10,24,15,01,9.20
2013,10,24,15,02,9.20
2013,10,24,15,03,9.20
2013,10,24,15,04,9.20
2013,10,24,15,05,9.20
2013,10,24,15,06,9.20
2013,10,24,15,07,9.20
2013,10,24,15,08,9.30
2013,10,24,15,09,9.30
2013,10,24,15,10,9.30
2013,10,24,15,11,9.30
2013,10,24,15,12,9.20
2013,10,24,15,13,9.30
2013,10,24,15,14,9.30
2013,10,24,15,15,9.30
2013,10,24,15,16,9.30
2013,10,24,15,17,9.40
2013,10,24,15,18,9.40
2013,10,24,15,19,9.50
2013,10,24,15,20,9.50
2013,10,24,15,21,9.60
2013,10,24,15,22,9.70
2013,10,24,15,23,9.70
2013,10,24,15,24,9.70
2013,10,24,15,25,9.70
2013,10,24,15,26,9.70
2013,10,24,15,27,9.80
2013,10,24,15,28,9.90
2013,10,24,15,29,10.00
2013,10,24,15,30,10.10
2013,10,24,15,31,10.10
2013,10,24,15,32,10.20
2013,10,24,15,33,10.30
2013,10,24,15,34,10.30
2013,10,24,15,35,10.40
2013,10,24,15,36,10.50
2013,10,24,15,37,10.60
2013,10,24,15,38,10.70
2013,10,24,15,39,10.80
2013,10,24,15,40,10.90
2013,10,24,15,41,11.00
2013,10,24,15,42,11.10
2013,10,24,15,43,11.20
2013,10,24,15,44,11.30
2013,10,24,15,45,11.40
2013,10,24,15,46,11.40
2013,10,24,15,47,11.50
2013,10,24,15,48,11.60
2013,10,24,15,49,11.60
2013,10,24,15,50,11.60
2013,10,24,15,51,11.60
2013,10,24,15,52,11.50
2013,10,24,15,53,11.40
2013,10,24,15,54,11.40
2013,10,24,15,55,11.40
2013,10,24,15,56,11.40
2013,10,24,15,57,11.40
2013,10,24,15,58,11.50
2013,10,24,15,59,11.60
2013,10,24,16,00,11.60
2013,10,24,16,01,11.60
2013,10,24,16,02,11.60
2013,10,24,16,03,11.70
2013,10,24,16,04,11.70
2013,10,24,16,05,11.80
2013,10,24,16,06,11.80
2013,10,24,16,07,11.90
2013,10,24,16,08,11.90
2013,10,24,16,09,11.90
2013,10,24,16,10,12.00
2013,10,24,16,11,12.00
2013,10,24,16,12,12.00
2013,10,24,16,13,12.00
2013,10,24,16,14,12.10
2013,10,24,16,15,12.10
2013,10,24,16,16,12.10
2013,10,24,16,17,12.10
2013,10,24,16,18,12.10
2013,10,24,16,19,12.20
2013,10,24,16,20,12.20
2013,10,24,16,21,12.20
2013,10,24,16,22,12.20
2013,10,24,16,23,12.20
2013,10,24,16,24,12.30
2013,10,24,16,25,12.30
2013,10,24,16,26,12.30
2013,10,24,16,27,12.30
2013,10,24,16,28,12.30
2013,10,24,16,29,12.30
2013,10,24,16,30,12.30
2013,10,24,16,31,12.30
2013,10,24,16,32,12.30
2013,10,24,16,33,12.30
2013,10,24,16,34,12.30
2013,10,24,16,35,12.40
2013,10,24,16,36,12.40
2013,10,24,16,37,12.40
2013,10,24,16,38,12.50
2013,10,24,16,39,12.50
2013,10,24,16,40,12.50
2013,10,24,16,41,12.40
2013,10,24,16,42,12.40
2013,10,24,16,43,12.40
2013,10,24,16,44,12.40
2013,10,24,16,45,12.30
2013,10,24,16,46,12.30
2013,10,24,16,47,12.30
2013,10,24,16,48,12.40
2013,10,24,16,49,12.40
2013,10,24,16,50,12.40
2013,10,24,16,51,12.40
2013,10,24,16,52,12.50
2013,10,24,16,53,12.50
2013,10,24,16,54,12.50
2013,10,24,16,55,12.50
2013,10,24,16,56,12.50
2013,10,24,16,57,12.50
2013,10,24,16,58,12.60
2013,10,24,16,59,12.60
2013,10,24,17,00,12.60
2013,10,24,17,01,12.60
2013,10,24,17,02,12.70
2013,10,24,17,03,12.70
2013,10,24,17,04,12.70
2013,10,24,17,05,12.70
2013,10,24,17,06,12.60
2013,10,24,17,07,12.50
2013,10,24,17,08,12.50
2013,10,24,17,09,12.40
2013,10,24,17,10,12.30
2013,10,24,17,11,12.30
2013,10,24,17,12,12.30
2013,10,24,17,13,12.20
2013,10,24,17,14,12.10
2013,10,24,17,15,12.10
2013,10,24,17,16,12.00
2013,10,24,17,17,12.00
2013,10,24,17,18,12.00
2013,10,24,17,19,11.90
2013,10,24,17,20,11.90
2013,10,24,17,21,11.90
2013,10,24,17,22,11.90
2013,10,24,17,23,11.90
2013,10,24,17,24,11.90
2013,10,24,17,25,11.90
2013,10,24,17,26,11.80
2013,10,24,17,27,11.80
2013,10,24,17,28,11.80
2013,10,24,17,29,11.80
2013,10,24,17,30,11.80
2013,10,24,17,31,11.80
2013,10,24,17,32,11.80
2013,10,24,17,33,11.80
2013,10,24,17,34,11.70
2013,10,24,17,35,11.70
2013,10,24,17,36,11.60
2013,10,24,17,37,11.60
2013,10,24,17,38,11.60
2013,10,24,17,39,11.60
2013,10,24,17,40,11.50
2013,10,24,17,41,11.40
2013,10,24,17,42,11.40
2013,10,24,17,43,11.40
2013,10,24,17,44,11.30
2013,10,24,17,45,11.30
2013,10,24,17,46,11.30
2013,10,24,17,47,11.20
2013,10,24,17,48,11.20
2013,10,24,17,49,11.10
2013,10,24,17,50,11.10
2013,10,24,17,51,11.00
2013,10,24,17,52,10.90
2013,10,24,17,53,10.90
2013,10,24,17,54,10.90
2013,10,24,17,55,10.80
2013,10,24,17,56,10.80
2013,10,24,17,57,10.70
2013,10,24,17,58,10.70
2013,10,24,17,59,10.60